This demonstration page uses our WeatherBlox Daily Observations layout. Learn more.

Left ArrowRight Arrow

Hourly Observations for April 18, 2020

Temp ( °F °C ) Dew Point ( °F °C ) Humidity (%) Winds ( mph kmh ) Pressure ( in mb ) Visibility ( mi km ) Precip ( " mm )
12:51 am 00:51 Clear 58 14.4 20 -6.7 23 23 N 6 9 29.83 1010 10 16.0934 0 0
1:51 am 01:51 Clear 56 13.3 21 -6.1 26 26 Calm 29.82 1010 10 16.0934 0 0
2:51 am 02:51 Clear 54 12.2 18 -7.8 24 24 W 6 9 29.83 1010 10 16.0934 0 0
3:51 am 03:51 Clear 52 11.1 18 -7.8 26 26 WSW 7 11 29.84 1010 10 16.0934 0 0
4:51 am 04:51 Clear 43 6.1 17 -8.3 35 35 Calm 29.85 1011 10 16.0934 0 0
5:51 am 05:51 Sunny 43 6.1 17 -8.3 35 35 ESE 6 9 29.88 1012 10 16.0934 0 0
6:51 am 06:51 Sunny 54 12.2 19 -7.2 25 25 ESE 6 9 29.87 1011 10 16.0934 0 0
7:51 am 07:51 Sunny 60 15.6 21 -6.1 22 22 SSE 6 9 29.87 1012 10 16.0934 0 0
8:51 am 08:51 Sunny 62 16.7 22 -5.6 21 21 SE 3 6 29.88 1012 10 16.0934 0 0
9:51 am 09:51 Sunny 69 20.6 20 -6.7 15 15 VRB 3 6 29.86 1011 10 16.0934 0 0
10:51 am 10:51 Sunny 71 21.7 20 -6.7 14 14 VRB 5 7 29.84 1011 10 16.0934 0 0
11:51 am 11:51 Sunny 75 23.9 20 -6.7 12 12 VRB 5 7 29.8 1009 10 16.0934 0 0
12:51 pm 12:51 Sunny 75 23.9 21 -6.1 13 13 undefined N/A 29.78 1009 10 16.0934 0 0
1:51 pm 13:51 Sunny 78 25.6 22 -5.6 12 12 NNW 17 28 29.75 1008 10 16.0934 0 0
2:51 pm 14:51 Sunny 77 25 22 -5.6 13 13 NNW 17 28 29.74 1007 10 16.0934 0 0
3:51 pm 15:51 Sunny 76 24.4 22 -5.6 13 13 WNW 23 37 29.74 1007 10 16.0934 0 0
4:51 pm 16:51 Sunny 76 24.4 22 -5.6 13 13 NW 18 30 29.75 1008 10 16.0934 0 0
5:51 pm 17:51 Sunny 74 23.3 23 -5 15 15 WNW 22 35 29.76 1008 10 16.0934 0 0
6:51 pm 18:51 Sunny 70 21.1 24 -4.4 18 18 WNW 18 30 29.77 1008 10 16.0934 0 0
7:51 pm 19:51 Clear 66 18.9 29 -1.7 25 25 NW 9 15 29.8 1009 10 16.0934 0 0
8:51 pm 20:51 Clear 65 18.3 31 -0.6 28 28 NW 10 17 29.84 1011 10 16.0934 0 0
9:51 pm 21:51 Clear 61 16.1 33 0.6 35 35 W 12 19 29.85 1011 10 16.0934 0 0
10:51 pm 22:51 Clear 60 15.6 34 1.1 38 38 WNW 12 19 29.86 1011 10 16.0934 0 0
11:51 pm 23:51 Clear 55 12.8 33 0.6 44 44 WNW 8 13 29.87 1012 10 16.0934 0 0

Powered by AerisWeather